TimeMST,TemperatureF,Dew PointF,Humidity,Sea Level PressureIn,VisibilityMPH,Wind Direction,Wind SpeedMPH,Gust SpeedMPH,PrecipitationIn,Events,Conditions,WindDirDegrees,DateUTC
12:53 AM,21.0,16.0,81,30.25,7.0,Calm,Calm,-,N/A,,Clear,0,2012-11-27 07:53:00
1:53 AM,19.0,14.0,81,30.25,7.0,East,5.8,-,N/A,,Clear,100,2012-11-27 08:53:00
2:53 AM,36.0,8.1,31,30.16,10.0,West,20.7,-,N/A,,Clear,270,2012-11-27 09:53:00
3:53 AM,37.0,3.0,24,30.13,10.0,West,19.6,-,N/A,,Clear,270,2012-11-27 10:53:00
4:53 AM,36.0,3.0,25,30.16,10.0,West,18.4,-,N/A,,Clear,270,2012-11-27 11:53:00
5:53 AM,37.0,1.0,22,30.16,10.0,West,15.0,-,N/A,,Clear,270,2012-11-27 12:53:00
6:53 AM,39.0,-0.9,19,30.16,10.0,West,19.6,-,N/A,,Clear,270,2012-11-27 13:53:00
7:53 AM,42.1,-5.1,14,30.16,10.0,West,21.9,-,N/A,,Clear,260,2012-11-27 14:53:00
8:53 AM,43.0,-6.0,13,30.18,10.0,West,17.3,-,N/A,,Clear,260,2012-11-27 15:53:00
9:53 AM,50.0,-8.0,9,30.14,10.0,West,23.0,43.7,N/A,,Clear,260,2012-11-27 16:53:00
10:53 AM,51.1,-7.1,9,30.14,10.0,West,27.6,39.1,N/A,,Clear,270,2012-11-27 17:53:00
11:53 AM,55.0,-7.1,8,30.12,10.0,West,33.4,41.4,N/A,,Clear,270,2012-11-27 18:53:00
12:53 PM,57.0,-6.0,8,30.10,10.0,West,26.5,41.4,N/A,,Clear,280,2012-11-27 19:53:00
1:53 PM,55.9,-5.1,8,30.11,10.0,WNW,26.5,31.1,N/A,,Clear,290,2012-11-27 20:53:00
2:53 PM,55.0,-4.0,9,30.04,10.0,WNW,20.7,31.1,N/A,,Clear,290,2012-11-27 21:53:00
3:53 PM,52.0,-2.0,11,30.07,10.0,WNW,11.5,-,N/A,,Clear,290,2012-11-27 22:53:00
4:53 PM,46.9,1.0,15,30.11,10.0,WNW,11.5,-,N/A,,Clear,290,2012-11-27 23:53:00
5:53 PM,41.0,3.9,21,30.17,10.0,NNW,3.5,-,N/A,,Clear,330,2012-11-28 00:53:00
6:53 PM,39.0,3.9,23,30.19,10.0,WSW,5.8,-,N/A,,Clear,250,2012-11-28 01:53:00
7:53 PM,34.0,5.0,30,30.21,10.0,WNW,6.9,-,N/A,,Clear,290,2012-11-28 02:53:00
8:53 PM,34.0,6.1,31,30.20,10.0,NNW,3.5,-,N/A,,Clear,330,2012-11-28 03:53:00
9:40 PM,39.2,10.4,31,30.22,10.0,SSW,13.8,-,N/A,,Clear,210,2012-11-28 04:40:00
9:53 PM,37.9,10.9,33,30.16,10.0,SW,12.7,-,N/A,,Clear,230,2012-11-28 04:53:00
10:53 PM,35.1,10.0,35,30.17,10.0,WSW,11.5,-,N/A,,Clear,240,2012-11-28 05:53:00
11:53 PM,33.1,10.0,38,30.16,10.0,SW,12.7,-,N/A,,Clear,230,2012-11-28 06:53:00